{"data":{"norad_id":52817,"intl_designator":"2022-061A","name":"NILESAT 301","alt_names":[],"object_type":"PAYLOAD","status":"ACTIVE","operator":null,"country":"EGYP","launch_date":"2022-06-08","launch_site_code":"AFETR","launch_vehicle":null,"mission":null,"orbit_class":"UNKNOWN","rcs_meters":null,"size_class":null,"mass_kg":null,"dimensions":null,"purposes":["comms"],"wikipedia_slug":null,"has_3d_model":false,"image_url":null,"decayed_at":null,"tle_current":{"epoch":"2026-09-20T03:12:05.803200Z","epoch_age_seconds":53586,"freshness":"FRESH","line1":"1 52817U 22061A   26263.13340050 -.00000062  00000+0  00000+0 0  9996","line2":"2 52817   0.0594 349.6462 0001373 169.0122 241.3746  1.00271352 15680","mean_motion":1.00271352,"eccentricity":0.0001373,"inclination_deg":0.0594,"raan_deg":349.6462,"arg_perigee_deg":169.0122,"mean_anomaly_deg":241.3746,"bstar":0,"rev_number":1568,"period_min":1436.1031055012,"perigee_km":35780.927112881,"apogee_km":35792.50558161,"semimajor_km":42164.853347246,"source":"CELESTRAK","updated_at":"2026-09-20T09:00:35.303787Z"}}}